Wind_Speed
30 30 31 31 31 32 32 33 33 34 34 35 35 35 34 34 34 34 35 35 35 34 35 35 34 34 34 34 34 34 34 34 34 33 33 33 33 33 33 33 32 31 31
30 31 31 31 32 32 33 34 35 35 35 36 36 36 36 36 36 36 36 36 36 36 36 35 36 36 36 36 35 36 36 35 35 35 35 35 35 35 34 34 34 33 33
30 30 31 31 32 32 33 34 34 35 36 37 38 38 38 37 38 38 38 38 38 38 38 38 39 38 38 38 38 38 37 37 37 37 37 37 37 37 36 36 36 36 36
30 30 31 31 31 32 34 34 35 35 36 37 38 39 39 40 39 39 39 40 40 39 39 39 39 40 40 40 39 39 39 39 39 39 39 40 39 39 38 37 37 37 38
32 32 32 32 33 34 35 36 36 36 37 37 37 38 39 40 40 40 41 41 41 41 41 41 41 41 41 41 41 41 41 41 41 41 40 40 40 40 40 40 39 39 39
33 33 34 35 35 36 36 37 38 38 38 38 39 38 39 40 40 41 41 41 41 43 43 43 43 42 42 43 43 43 42 42 42 43 42 42 42 43 42 42 41 41 40
34 35 36 36 37 37 37 38 38 39 39 40 40 40 40 40 41 41 42 42 43 44 45 44 45 44 44 45 44 44 43 42 42 42 43 43 44 44 44 44 43 42 42
35 36 36 36 37 38 38 38 38 39 39 39 40 42 42 41 41 41 41 42 43 45 45 45 45 45 45 46 44 44 44 44 43 42 44 45 45 45 44 43 43 43 43
36 37 37 38 38 38 39 38 38 37 37 38 39 39 40 40 40 41 42 42 43 44 45 46 45 44 46 46 46 46 45 45 45 44 44 44 43 44 43 43 43 42 42
36 36 37 38 38 38 38 38 39 37 37 38 38 38 38 39 39 39 40 41 42 43 45 45 45 45 45 46 47 47 48 47 46 45 44 45 44 43 44 43 42 42 42
38 37 37 38 38 38 38 38 38 37 38 38 37 36 36 36 37 37 38 38 39 40 41 42 43 44 44 45 45 45 47 47 47 47 46 45 45 44 44 43 42 43 42
37 36 36 37 37 36 37 37 37 37 37 37 36 35 35 35 36 36 36 37 37 38 39 40 41 42 42 42 42 43 44 45 46 45 45 45 44 43 42 43 43 43 42
37 36 35 35 35 36 36 36 37 37 37 37 36 35 35 35 35 36 36 37 37 37 38 39 39 41 41 41 41 41 42 43 43 43 43 43 42 42 41 41 42 43 44
37 37 37 36 35 35 35 35 36 36 36 35 35 35 35 35 35 35 35 36 37 37 37 38 38 39 38 39 40 40 40 40 41 42 42 42 42 43 43 43 44 44 45
37 36 37 36 36 35 35 35 35 35 34 34 34 35 35 35 35 35 35 36 37 37 36 36 36 36 37 37 37 37 38 39 40 41 41 43 44 44 44 44 45 45 45
36 36 36 36 36 36 36 35 35 35 35 35 35 35 36 35 35 34 35 35 36 37 36 36 37 37 37 37 37 37 37 38 40 41 42 42 42 44 44 44 44 44 45
36 36 36 36 36 36 36 36 37 37 37 37 37 37 37 37 36 35 35 36 36 36 36 37 37 38 38 37 38 38 39 39 39 40 40 41 42 43 43 44 44 45 46
36 36 37 37 37 37 37 37 37 38 38 38 38 38 38 38 37 37 37 37 37 37 38 37 37 38 38 38 38 38 39 40 40 40 41 41 42 43 44 45 45 46 47
36 37 37 37 37 37 37 37 38 39 39 39 39 39 39 39 38 39 39 39 38 38 38 38 37 37 38 38 38 39 39 40 41 40 40 41 42 43 44 45 46 47 47
37 37 37 37 37 37 37 38 38 39 39 39 39 39 39 39 39 39 39 39 38 38 38 38 38 38 38 38 38 39 39 40 40 40 40 41 43 44 45 46 46 47 48
37 37 37 37 38 38 39 39 39 39 39 39 40 40 40 40 39 39 39 38 38 38 37 37 37 38 38 37 38 38 38 39 40 40 41 42 43 44 45 46 47 47 48
37 37 37 38 39 39 40 40 40 40 40 40 40 40 40 40 39 38 38 38 38 37 36 36 36 37 37 37 37 38 38 38 39 40 41 42 44 44 45 46 47 48 48
39 39 39 40 40 41 41 41 41 41 41 40 41 41 40 40 39 38 37 37 37 36 36 36 36 36 37 37 37 38 38 39 40 41 42 43 44 45 46 47 48 48 49
39 40 41 41 42 42 42 42 42 41 41 40 40 40 39 39 38 38 38 37 37 36 36 37 37 37 38 38 39 39 39 40 41 42 42 42 43 44 45 46 47 47 48
40 41 42 42 42 42 41 41 41 41 41 40 40 39 38 38 38 38 37 37 38 38 38 38 38 38 39 39 40 40 41 41 41 42 43 43 44 44 44 45 47 48 48
41 42 42 42 42 42 41 41 40 41 41 40 40 40 39 38 38 37 37 37 37 38 38 39 39 39 39 40 41 41 41 42 43 43 44 44 45 45 44 45 46 47 48
Wind_Direction
264 264 263 264 267 268 269 270 270 269 268 267 267 268 268 268 267 267 267 268 269 270 272 270 269 270 272 273 275 276 277 278 279 280 280 281 281 280 282 283 283 283 282
265 266 266 266 269 270 270 271 271 270 269 267 266 267 268 268 268 267 267 268 268 269 270 271 271 272 273 272 274 276 277 278 279 280 280 280 280 280 280 281 281 280 280
265 267 269 270 271 272 272 273 272 271 270 269 267 267 267 267 267 267 267 267 267 268 269 271 272 273 274 274 274 275 276 278 278 278 279 279 279 279 279 279 279 279 279
266 270 272 273 274 274 274 274 274 273 272 270 268 267 267 267 267 267 267 267 267 267 268 270 270 271 272 273 273 273 275 276 276 276 277 277 277 278 278 278 278 278 278
268 271 272 273 274 276 275 274 274 274 273 271 269 268 268 268 268 267 267 267 267 267 268 269 269 270 271 272 272 272 273 274 274 275 276 277 277 277 276 277 277 277 277
269 271 273 274 274 275 276 276 275 274 273 272 269 269 269 268 268 267 267 267 267 267 268 269 269 269 270 271 270 271 272 273 275 274 274 275 276 277 277 277 276 276 276
269 271 274 274 274 274 275 276 276 275 274 272 270 270 270 269 269 268 268 267 267 268 269 270 270 270 270 270 269 270 271 272 274 273 273 274 275 276 277 277 276 276 276
270 271 273 275 276 275 276 276 276 275 274 274 272 271 270 269 268 267 268 268 268 268 269 270 270 271 271 270 269 270 271 271 272 273 274 276 276 277 276 277 276 275 275
271 273 273 276 278 278 276 276 276 275 274 274 274 274 272 270 268 267 267 269 270 269 269 271 271 272 272 271 270 269 269 270 271 272 274 275 276 276 275 275 275 274 274
274 275 275 279 280 279 277 276 275 274 274 275 274 274 273 272 270 268 267 268 270 270 271 272 272 272 273 273 272 269 268 268 270 271 273 273 273 273 273 273 274 274 274
276 278 278 278 280 279 277 276 277 276 275 276 277 275 274 272 271 270 268 270 271 271 273 273 274 274 274 274 273 271 269 269 270 271 272 272 272 272 273 273 274 274 274
277 278 280 279 279 278 277 277 276 276 276 276 277 278 277 275 274 273 272 271 272 273 274 274 274 275 275 275 273 272 271 270 271 272 272 272 272 272 273 273 273 273 274
277 278 279 280 279 278 277 277 277 277 277 276 276 277 277 276 276 275 273 272 272 273 274 274 275 275 274 273 271 272 271 270 272 272 273 273 273 273 273 272 273 274 274
276 278 279 279 279 279 278 277 277 277 278 277 276 276 277 277 277 276 276 275 274 274 275 275 275 275 274 273 271 271 272 271 272 272 272 272 272 273 272 272 273 273 273
277 278 278 278 278 278 278 277 276 276 277 278 278 278 279 279 279 278 277 277 276 276 275 275 275 275 275 275 273 273 272 271 270 270 271 272 273 272 272 272 273 272 273
276 277 277 278 278 278 278 278 277 276 277 277 279 280 280 280 279 279 278 279 278 277 276 275 274 275 276 276 273 273 273 273 270 271 271 272 272 273 272 273 274 274 274
275 276 277 277 278 278 278 277 277 277 278 278 279 280 280 279 279 278 278 278 279 279 278 276 274 275 276 276 274 274 274 275 274 273 273 273 272 273 273 274 274 274 274
275 275 276 277 277 277 277 277 277 277 277 277 278 278 279 278 278 278 278 278 278 279 278 277 276 276 276 275 275 276 276 275 275 275 275 275 274 274 275 276 275 276 276
275 275 275 276 276 276 276 276 276 276 276 276 276 277 277 278 278 279 278 277 277 277 277 277 277 277 277 276 275 276 275 274 275 277 278 278 277 277 277 277 278 278 277
275 275 275 275 275 275 275 276 276 275 275 274 275 275 276 277 278 279 278 276 276 276 276 276 277 276 276 276 276 276 275 275 275 277 278 278 278 279 279 279 279 279 279
275 275 275 275 275 275 275 274 274 274 274 274 274 275 276 276 276 276 276 275 275 275 276 276 276 276 276 276 276 276 276 276 276 277 278 280 281 281 281 281 280 280 280
274 275 276 276 276 276 275 274 273 273 274 274 274 275 275 275 275 275 275 274 274 275 275 276 276 276 277 277 276 277 277 277 278 279 280 282 283 283 283 283 282 281 281
275 275 276 276 276 276 275 275 274 274 274 274 274 274 275 274 273 273 273 273 274 274 275 275 276 276 276 276 277 277 278 278 280 280 281 283 284 284 285 284 283 282 282
276 276 277 277 277 276 275 274 273 272 273 274 274 274 274 273 272 271 271 272 274 275 275 276 276 276 276 276 277 277 278 279 280 282 283 284 285 285 286 286 285 285 285
277 278 278 278 277 276 275 274 273 271 272 273 273 272 272 271 271 271 271 271 272 273 274 275 276 276 276 276 277 277 278 279 281 283 284 285 286 287 287 287 287 286 286
278 279 278 278 277 275 274 273 272 271 271 271 271 270 270 272 271 271 271 272 272 273 274 274 275 275 276 277 278 279 279 280 282 284 285 286 287 287 287 288 288 288 287
Height
5816 5816 5816 5816 5816 5816 5816 5816 5815 5815 5815 5815 5815 5815 5815 5815 5815 5815 5815 5815 5815 5815 5815 5815 5815 5814 5814 5814 5813 5813 5812 5811 5811 5810 5809 5808 5807 5806 5805 5804 5803 5802 5801
5809 5809 5809 5809 5809 5809 5808 5808 5807 5807 5807 5807 5807 5807 5807 5807 5807 5807 5807 5807 5807 5807 5807 5807 5807 5806 5806 5806 5806 5805 5804 5803 5803 5802 5801 5801 5800 5799 5798 5797 5796 5795 5794
5802 5802 5802 5802 5801 5801 5800 5800 5799 5798 5798 5798 5798 5798 5798 5798 5798 5798 5798 5798 5799 5799 5799 5799 5799 5798 5798 5798 5797 5797 5796 5796 5795 5794 5793 5792 5792 5791 5790 5789 5788 5787 5786
5795 5795 5795 5794 5794 5793 5792 5791 5791 5790 5789 5789 5789 5789 5789 5789 5789 5789 5789 5789 5789 5790 5790 5790 5790 5789 5789 5789 5789 5788 5788 5787 5786 5785 5785 5784 5783 5782 5782 5781 5780 5779 5778
5788 5787 5787 5786 5786 5785 5784 5783 5782 5781 5780 5780 5780 5779 5779 5779 5779 5779 5780 5780 5780 5780 5780 5780 5780 5780 5779 5779 5779 5779 5778 5777 5777 5776 5775 5775 5774 5773 5772 5771 5770 5770 5769
5780 5780 5779 5778 5777 5777 5775 5774 5773 5772 5771 5770 5770 5770 5770 5770 5770 5770 5770 5770 5770 5770 5770 5770 5770 5769 5769 5769 5769 5769 5768 5767 5767 5766 5766 5765 5764 5763 5762 5762 5761 5760 5759
5772 5771 5771 5770 5769 5767 5766 5765 5764 5762 5762 5761 5761 5761 5760 5760 5760 5760 5760 5760 5760 5760 5760 5759 5759 5759 5759 5758 5758 5758 5758 5757 5757 5756 5755 5755 5754 5753 5752 5751 5750 5750 5749
5763 5763 5762 5761 5759 5758 5757 5756 5754 5753 5752 5751 5750 5750 5750 5751 5749 5749 5749 5749 5749 5749 5749 5748 5748 5747 5747 5747 5747 5747 5747 5747 5746 5746 5745 5745 5744 5743 5742 5741 5740 5739 5739
5755 5754 5753 5751 5750 5749 5747 5746 5745 5744 5743 5742 5740 5739 5739 5739 5739 5739 5739 5739 5738 5738 5737 5737 5736 5736 5736 5736 5736 5736 5736 5736 5735 5735 5734 5734 5733 5733 5732 5731 5730 5729 5728
5746 5745 5744 5742 5740 5739 5738 5737 5736 5735 5734 5732 5731 5729 5729 5728 5728 5729 5729 5728 5728 5727 5727 5726 5725 5725 5724 5724 5723 5724 5724 5724 5724 5724 5724 5723 5722 5722 5721 5720 5719 5719 5718
5737 5736 5735 5733 5732 5730 5729 5728 5727 5726 5725 5723 5722 5720 5719 5718 5717 5717 5719 5718 5718 5717 5716 5715 5715 5714 5713 5713 5712 5712 5713 5713 5713 5712 5712 5712 5711 5711 5710 5710 5709 5708 5707
5728 5727 5726 5724 5723 5722 5720 5719 5718 5717 5716 5715 5714 5712 5711 5709 5709 5708 5708 5709 5708 5707 5706 5705 5704 5704 5703 5702 5701 5701 5701 5701 5701 5701 5701 5701 5700 5700 5699 5699 5698 5697 5696
5720 5719 5717 5716 5714 5713 5712 5711 5710 5709 5708 5707 5706 5704 5702 5701 5700 5699 5699 5699 5698 5697 5696 5695 5694 5693 5692 5691 5691 5690 5690 5690 5690 5690 5690 5690 5689 5689 5689 5688 5687 5686 5685
5711 5710 5709 5707 5706 5704 5703 5702 5701 5700 5699 5698 5697 5695 5694 5693 5691 5691 5690 5689 5688 5688 5687 5686 5684 5683 5682 5681 5680 5680 5679 5679 5679 5679 5679 5679 5679 5678 5678 5677 5676 5675 5674
5702 5700 5699 5698 5697 5696 5695 5694 5693 5692 5691 5689 5688 5687 5686 5684 5683 5682 5681 5680 5679 5678 5678 5677 5675 5673 5672 5671 5670 5669 5669 5669 5668 5668 5668 5668 5667 5667 5666 5665 5664 5663 5662
5692 5691 5690 5689 5688 5687 5686 5685 5684 5683 5682 5681 5679 5678 5677 5676 5674 5673 5672 5671 5669 5668 5668 5667 5666 5664 5663 5661 5660 5660 5659 5658 5658 5657 5657 5656 5655 5655 5654 5653 5652 5651 5650
5683 5682 5681 5680 5679 5678 5677 5676 5675 5674 5672 5671 5670 5669 5668 5666 5665 5664 5663 5661 5660 5659 5658 5657 5656 5654 5653 5652 5651 5650 5649 5648 5647 5646 5645 5644 5644 5643 5642 5641 5640 5639 5637
5673 5672 5671 5670 5669 5668 5667 5666 5665 5664 5663 5662 5661 5659 5658 5657 5656 5654 5653 5652 5650 5649 5648 5647 5646 5645 5644 5643 5641 5640 5639 5637 5636 5635 5634 5633 5632 5631 5630 5629 5628 5626 5625
5663 5662 5661 5660 5659 5658 5657 5656 5655 5654 5653 5652 5651 5650 5648 5647 5646 5644 5643 5642 5640 5639 5637 5636 5636 5634 5633 5632 5631 5630 5629 5627 5626 5625 5623 5622 5621 5619 5618 5616 5615 5613 5611
5652 5651 5650 5649 5648 5647 5646 5645 5644 5643 5642 5641 5640 5639 5638 5637 5636 5634 5633 5631 5630 5629 5627 5626 5625 5624 5623 5621 5620 5619 5618 5616 5615 5614 5612 5611 5609 5607 5606 5604 5602 5600 5598
5641 5640 5639 5638 5637 5636 5635 5634 5633 5632 5631 5631 5630 5629 5627 5626 5625 5623 5622 5621 5619 5618 5617 5616 5615 5613 5612 5611 5610 5608 5607 5605 5603 5602 5601 5599 5597 5595 5592 5590 5588 5586 5584
5630 5629 5628 5627 5626 5625 5624 5623 5622 5621 5620 5619 5618 5618 5616 5615 5614 5613 5612 5610 5609 5608 5606 5605 5604 5603 5601 5600 5599 5597 5596 5594 5593 5592 5589 5587 5584 5582 5579 5576 5574 5572 5569
5619 5618 5617 5615 5614 5613 5612 5611 5610 5609 5608 5608 5607 5606 5605 5604 5603 5602 5601 5599 5598 5597 5596 5595 5594 5592 5591 5590 5588 5586 5585 5583 5581 5579 5578 5575 5571 5569 5565 5562 5559 5557 5554
5607 5606 5605 5603 5602 5601 5599 5598 5597 5597 5596 5596 5595 5594 5594 5593 5592 5591 5590 5588 5587 5586 5585 5584 5583 5581 5580 5578 5577 5575 5573 5572 5570 5567 5565 5563 5559 5556 5552 5548 5545 5542 5539
5595 5594 5592 5591 5590 5588 5587 5586 5585 5584 5584 5584 5583 5582 5582 5581 5580 5579 5578 5578 5577 5575 5574 5572 5571 5570 5568 5567 5565 5563 5562 5560 5558 5555 5552 5550 5547 5544 5540 5535 5531 5527 5524
5582 5581 5580 5578 5577 5576 5574 5573 5572 5572 5572 5572 5571 5570 5570 5569 5568 5567 5567 5566 5565 5564 5563 5561 5560 5558 5557 5555 5553 5551 5549 5547 5545 5543 5540 5537 5534 5530 5529 5524 5518 5514 5510